QTR314 OTHH-OMDB

Flight info

Callsign QTR314
Flight time 0h 41m
Altitude 21000
Route ALSEM L305 ITBUL M677 VUTEB
Aircraft B77W/H-SDE1E2E3FGHIJ2J3J4J5M1RWXY/LB1D1

Departure

Time 2026-04-30 14:10
Airport Hamad International Airport (OTHH)

Arrival

Time 2026-04-30 14:51
Airport Dubai International Airport (OMDB)
Time Latitude Longitude Altitude Speed Heading
2026-04-30 13:26 25.26174 51.61656 35 ft 0 kts 338°
2026-04-30 14:04 25.26145 51.61669 34 ft 12 kts 338°
2026-04-30 14:04 25.26113 51.61681 34 ft 1 kts 41°
2026-04-30 14:04 25.26118 51.61693 33 ft 2 kts 70°
2026-04-30 14:05 25.26118 51.61710 35 ft 2 kts 89°
2026-04-30 14:05 25.26118 51.61732 35 ft 3 kts 89°
2026-04-30 14:05 25.26122 51.61761 35 ft 4 kts 77°
2026-04-30 14:05 25.26132 51.61796 35 ft 5 kts 69°
2026-04-30 14:06 25.26146 51.61835 35 ft 6 kts 69°
2026-04-30 14:06 25.26181 51.61932 35 ft 10 kts 68°
2026-04-30 14:07 25.26198 51.62069 35 ft 10 kts 137°
2026-04-30 14:07 25.26137 51.62105 35 ft 10 kts 158°
2026-04-30 14:07 25.26073 51.62135 35 ft 10 kts 157°
2026-04-30 14:08 25.25938 51.62196 35 ft 13 kts 159°
2026-04-30 14:08 25.25772 51.62268 34 ft 31 kts 158°
2026-04-30 14:08 25.25484 51.62461 34 ft 21 kts 77°
2026-04-30 14:09 25.25548 51.62608 32 ft 21 kts 49°
2026-04-30 14:09 25.25673 51.62621 31 ft 18 kts 338°
2026-04-30 14:09 25.26342 51.62330 32 ft 119 kts 337°
2026-04-30 14:10 25.27302 51.61888 195 ft 165 kts 338°
2026-04-30 14:10 25.28347 51.61405 965 ft 165 kts 341°
2026-04-30 14:10 25.29430 51.60960 1804 ft 168 kts 342°
2026-04-30 14:10 25.30585 51.60482 2285 ft 191 kts 340°
2026-04-30 14:11 25.31930 51.59884 2520 ft 222 kts 339°
2026-04-30 14:11 25.33474 51.59514 3005 ft 239 kts
2026-04-30 14:11 25.35028 51.60296 3621 ft 260 kts 40°
2026-04-30 14:11 25.35981 51.62062 4323 ft 278 kts 74°
2026-04-30 14:12 25.36441 51.63997 4897 ft 283 kts 62°
2026-04-30 14:12 25.37486 51.65845 5490 ft 286 kts 58°
2026-04-30 14:12 25.38161 51.67935 6136 ft 294 kts 82°
2026-04-30 14:12 25.38307 51.69420 6719 ft 296 kts 87°
2026-04-30 14:13 25.38435 51.72496 7781 ft 303 kts 89°
2026-04-30 14:13 25.38513 51.74803 8657 ft 306 kts 88°
2026-04-30 14:13 25.38612 51.77164 9530 ft 310 kts 88°
2026-04-30 14:13 25.38733 51.79572 10294 ft 318 kts 87°
2026-04-30 14:14 25.38877 51.82089 10716 ft 341 kts 86°
2026-04-30 14:14 25.38989 51.83910 10854 ft 361 kts 86°
2026-04-30 14:14 25.39174 51.86754 11066 ft 390 kts 86°
2026-04-30 14:14 25.39383 51.89818 11587 ft 407 kts 86°
2026-04-30 14:15 25.39605 51.92986 12368 ft 418 kts 86°
2026-04-30 14:15 25.39836 51.96223 13251 ft 426 kts 86°
2026-04-30 14:15 25.40071 51.99519 14144 ft 433 kts 86°
2026-04-30 14:15 25.40308 52.02855 15015 ft 438 kts 86°
2026-04-30 14:16 25.40547 52.06238 15865 ft 444 kts 86°
2026-04-30 14:16 25.40790 52.09672 16687 ft 450 kts 86°
2026-04-30 14:16 25.41036 52.13151 17507 ft 456 kts 86°
2026-04-30 14:16 25.41285 52.16678 18284 ft 462 kts 86°
2026-04-30 14:17 25.41536 52.20242 18957 ft 467 kts 86°
2026-04-30 14:17 25.41788 52.23846 19660 ft 472 kts 86°
2026-04-30 14:17 25.42040 52.27438 20372 ft 477 kts 86°
2026-04-30 14:17 25.42299 52.31166 20877 ft 483 kts 86°
2026-04-30 14:18 25.42556 52.34871 20855 ft 493 kts 86°
2026-04-30 14:18 25.42818 52.38670 20859 ft 496 kts 86°
2026-04-30 14:18 25.43339 52.46236 20840 ft 491 kts 86°
2026-04-30 14:19 25.43853 52.53772 20847 ft 490 kts 86°
2026-04-30 14:19 25.44108 52.57533 20845 ft 490 kts 86°
2026-04-30 14:19 25.44363 52.61298 20847 ft 491 kts 86°
2026-04-30 14:20 25.44616 52.65066 20849 ft 491 kts 86°
2026-04-30 14:20 25.44869 52.68835 20847 ft 492 kts 86°
2026-04-30 14:20 25.45772 52.76345 20844 ft 494 kts 77°
2026-04-30 14:21 25.46538 52.80051 20848 ft 494 kts 78°
2026-04-30 14:21 25.47274 52.83764 20848 ft 495 kts 78°
2026-04-30 14:21 25.48971 52.91145 20831 ft 495 kts 75°
2026-04-30 14:22 25.49885 52.94778 20839 ft 495 kts 74°
2026-04-30 14:22 25.51736 53.02123 20834 ft 495 kts 75°
2026-04-30 14:22 25.52648 53.05800 20833 ft 495 kts 75°
2026-04-30 14:23 25.54450 53.13164 20836 ft 495 kts 75°
2026-04-30 14:23 25.56239 53.20526 20830 ft 495 kts 75°
2026-04-30 14:24 25.58027 53.27892 20837 ft 495 kts 75°
2026-04-30 14:24 25.58920 53.31576 20837 ft 495 kts 75°
2026-04-30 14:25 25.60702 53.38935 20836 ft 495 kts 75°
2026-04-30 14:25 25.62485 53.46311 20831 ft 495 kts 75°
2026-04-30 14:26 25.64261 53.53674 20822 ft 495 kts 75°
2026-04-30 14:26 25.65147 53.57357 20828 ft 495 kts 75°
2026-04-30 14:26 25.66918 53.64727 20827 ft 495 kts 75°
2026-04-30 14:27 25.67802 53.68412 20827 ft 495 kts 75°
2026-04-30 14:27 25.68686 53.72102 20829 ft 495 kts 75°
2026-04-30 14:27 25.69559 53.75741 20820 ft 494 kts 75°
2026-04-30 14:28 25.71334 53.83108 20826 ft 494 kts 75°
2026-04-30 14:28 25.72219 53.86787 20823 ft 494 kts 75°
2026-04-30 14:28 25.73103 53.90469 20821 ft 494 kts 75°
2026-04-30 14:28 25.73987 53.94154 20821 ft 494 kts 75°
2026-04-30 14:29 25.75775 54.01510 20823 ft 494 kts 72°
2026-04-30 14:29 25.78051 54.08691 20823 ft 493 kts 69°
2026-04-30 14:30 25.80933 54.19571 20808 ft 487 kts 87°
2026-04-30 14:31 25.80202 54.26888 19981 ft 472 kts 110°
2026-04-30 14:31 25.77993 54.33646 18834 ft 462 kts 112°
2026-04-30 14:31 25.76917 54.36994 18227 ft 460 kts 111°
2026-04-30 14:32 25.74831 54.43664 16915 ft 453 kts 111°
2026-04-30 14:32 25.73813 54.46957 16315 ft 449 kts 111°
2026-04-30 14:32 25.72818 54.50174 15730 ft 445 kts 111°
2026-04-30 14:33 25.71806 54.53443 15140 ft 441 kts 111°
2026-04-30 14:33 25.69836 54.59785 14000 ft 434 kts 111°
2026-04-30 14:33 25.68845 54.62929 13423 ft 431 kts 111°
2026-04-30 14:34 25.67852 54.66028 13087 ft 420 kts 112°
2026-04-30 14:34 25.66884 54.69036 12815 ft 409 kts 112°
2026-04-30 14:34 25.65944 54.71959 12667 ft 395 kts 112°
2026-04-30 14:34 25.65040 54.74774 12623 ft 380 kts 112°
2026-04-30 14:35 25.63318 54.80131 12322 ft 359 kts 112°
2026-04-30 14:35 25.62493 54.82698 12178 ft 349 kts 112°
2026-04-30 14:35 25.61688 54.85199 12036 ft 339 kts 112°
2026-04-30 14:36 25.60878 54.87611 11928 ft 328 kts 115°
2026-04-30 14:36 25.59994 54.89888 11841 ft 317 kts 117°
2026-04-30 14:36 25.59105 54.92089 11673 ft 309 kts 117°
2026-04-30 14:36 25.58238 54.94237 11532 ft 302 kts 117°
2026-04-30 14:37 25.57386 54.96371 11414 ft 303 kts 117°
2026-04-30 14:37 25.56540 54.98506 11287 ft 302 kts 117°
2026-04-30 14:37 25.55699 55.00639 11162 ft 302 kts 117°
2026-04-30 14:37 25.54861 55.02765 11029 ft 300 kts 117°
2026-04-30 14:38 25.53948 55.04841 10877 ft 299 kts 122°
2026-04-30 14:38 25.52911 55.06834 10713 ft 299 kts 124°
2026-04-30 14:38 25.51851 55.08815 10564 ft 299 kts 124°
2026-04-30 14:38 25.50792 55.10804 10370 ft 300 kts 124°
2026-04-30 14:39 25.49744 55.12796 10214 ft 300 kts 123°
2026-04-30 14:39 25.48716 55.14766 10042 ft 299 kts 123°
2026-04-30 14:39 25.47680 55.16759 9880 ft 298 kts 123°
2026-04-30 14:40 25.45552 55.20662 9505 ft 291 kts 132°
2026-04-30 14:40 25.44234 55.22337 9348 ft 287 kts 137°
2026-04-30 14:40 25.42868 55.23932 9183 ft 285 kts 137°
2026-04-30 14:40 25.41512 55.25524 9024 ft 283 kts 136°
2026-04-30 14:41 25.40177 55.27124 8863 ft 282 kts 136°
2026-04-30 14:41 25.38859 55.28727 8708 ft 281 kts 136°
2026-04-30 14:41 25.37551 55.30326 8508 ft 280 kts 135°
2026-04-30 14:41 25.36257 55.31914 8258 ft 277 kts 135°
2026-04-30 14:42 25.35039 55.33550 8028 ft 274 kts 127°
2026-04-30 14:42 25.34039 55.35321 7807 ft 270 kts 123°
2026-04-30 14:42 25.33089 55.37112 7529 ft 269 kts 122°
2026-04-30 14:42 25.32154 55.38865 7236 ft 268 kts 122°
2026-04-30 14:43 25.31185 55.40653 6963 ft 266 kts 123°
2026-04-30 14:43 25.30230 55.42392 6729 ft 263 kts 123°
2026-04-30 14:43 25.29298 55.44072 6581 ft 256 kts 123°
2026-04-30 14:43 25.28356 55.45765 6363 ft 256 kts 122°
2026-04-30 14:44 25.27435 55.47413 6324 ft 252 kts 123°
2026-04-30 14:44 25.26528 55.49042 5992 ft 250 kts 123°
2026-04-30 14:44 25.25617 55.50679 5860 ft 251 kts 122°
2026-04-30 14:44 25.24709 55.52314 5576 ft 245 kts 122°
2026-04-30 14:45 25.23820 55.53914 5102 ft 242 kts 122°
2026-04-30 14:45 25.22951 55.55477 4795 ft 234 kts 122°
2026-04-30 14:45 25.22119 55.56974 4527 ft 224 kts 122°
2026-04-30 14:45 25.21207 55.58312 4169 ft 214 kts 143°
2026-04-30 14:46 25.19868 55.58923 3697 ft 208 kts 182°
2026-04-30 14:46 25.18511 55.58550 3255 ft 201 kts 220°
2026-04-30 14:46 25.17580 55.57477 2938 ft 188 kts 240°
2026-04-30 14:46 25.17054 55.56258 2667 ft 172 kts 266°
2026-04-30 14:47 25.17029 55.54975 2351 ft 161 kts 276°
2026-04-30 14:47 25.17096 55.53773 2030 ft 162 kts 282°
2026-04-30 14:47 25.17324 55.52533 2008 ft 167 kts 275°
2026-04-30 14:47 25.17409 55.51287 1968 ft 160 kts 293°
2026-04-30 14:48 25.17905 55.50212 2013 ft 160 kts 297°
2026-04-30 14:48 25.18376 55.49083 1899 ft 162 kts 298°
2026-04-30 14:48 25.18889 55.48027 1702 ft 151 kts 301°
2026-04-30 14:48 25.19416 55.47051 1545 ft 145 kts 302°
2026-04-30 14:49 25.19941 55.46095 1333 ft 145 kts 302°
2026-04-30 14:49 25.20463 55.45153 1172 ft 146 kts 301°
2026-04-30 14:49 25.20995 55.44192 977 ft 147 kts 301°
2026-04-30 14:49 25.21525 55.43236 783 ft 146 kts 300°
2026-04-30 14:50 25.22586 55.41325 421 ft 142 kts 299°
2026-04-30 14:50 25.23099 55.40380 256 ft 144 kts 300°
2026-04-30 14:51 25.24098 55.38559 30 ft 118 kts 302°
2026-04-30 14:51 25.24448 55.37935 30 ft 73 kts 301°
2026-04-30 14:51 25.24747 55.37377 28 ft 24 kts 290°
2026-04-30 14:52 25.24780 55.37217 29 ft 13 kts 275°
2026-04-30 14:52 25.24784 55.37134 28 ft 2 kts 271°
2026-04-30 14:52 25.24784 55.37098 28 ft 8 kts 271°
2026-04-30 14:53 25.24829 55.36895 27 ft 16 kts 297°
2026-04-30 14:53 25.24864 55.36777 27 ft 16 kts 280°
2026-04-30 14:54 25.24956 55.36553 26 ft 16 kts 302°
2026-04-30 14:54 25.25074 55.36340 30 ft 16 kts 301°
2026-04-30 14:55 25.25193 55.36130 26 ft 16 kts 302°
2026-04-30 14:55 25.25262 55.36007 30 ft 22 kts 302°
2026-04-30 14:55 25.25444 55.35680 31 ft 25 kts 301°
2026-04-30 14:56 25.25631 55.35351 32 ft 25 kts 302°
2026-04-30 14:56 25.25787 55.35070 28 ft 12 kts 300°
2026-04-30 14:57 25.25831 55.34988 29 ft 12 kts 301°
2026-04-30 14:57 25.25921 55.34826 29 ft 12 kts 302°
2026-04-30 14:58 25.25903 55.34693 30 ft 11 kts 211°
2026-04-30 14:58 25.25843 55.34653 29 ft 6 kts 211°
2026-04-30 14:58 25.25818 55.34636 29 ft 2 kts 211°
2026-04-30 14:59 25.25815 55.34634 29 ft 0 kts 211°